Location: Poughquag
(41.6090°N, 73.6820°W)
Time: 11:46:35
(UTC-04:00)

ACS3 Solar Sail - Pass Details

Date: 20 June 2024
Orbit: 992 x 1023 km, 97.4° (Epoch: 12 July)

Event Time Altitude Azimuth Distance (km) Brightness Sun altitude
Exits shadow 21:22:05 10° 125° (SE) 2,802 6.5 -8.2°
Reaches altitude 10° 21:22:12 10° 125° (SE) 2,765 6.5 -8.2°
Maximum altitude 21:27:30 30° 66° (ENE) 1,694 5.9 -9.0°
Drops below altitude 10° 21:32:47 10° 8° (N) 2,767 7.7 -9.7°
Sets 21:35:33 0° 358° (N) 3,719 8.6 -10.0°
